sat.trackr.live / text

‹ back to catalog

STARLINK-36947

NORAD 68033 · 2026-040U

PAYLOAD ACTIVE UNKNOWN

§ Identity

Operator
Country
US
Launch date
2026-03-01
Launch site
AFWTR
Launch vehicle
Mass (kg)
RCS (m²)

Purposes: comms

External: N2YO · Heavens-Above · Gunter

§ Orbital elements

Epoch: 2026-09-19T02:17:43.258848Z

Period
93.91 min
Inclination
97.2890°
Eccentricity
0.0003266
Mean motion
15.33459587 rev/d
Perigee alt
463.3 km
Apogee alt
467.7 km
Semi-major
6,843.6 km
B*
6.2762e-4
RAAN
209.4712°
Arg perigee
98.1826°
Mean anomaly
261.9787°
Rev number
3,110

§ Raw data

STARLINK-369471 68033U 26040U   26262.09563957  .00020253  00000+0  62762-3 0  99912 68033  97.2890 209.4712 0003266  98.1826 261.9787 15.33459587 31108

JSON: /api/v1/satellites/68033 · /tle

For live sub-satellite position, see the globe view (requires WebGL).

§ Visibility from observer

Set your observer location to see the next 7 days of passes ≥ 10°. The values pass through the URL so the page stays shareable.

No JS? Fill the form by hand. The geolocation button needs JavaScript.